Time,TemperatureF,DewpointF,PressureIn,WindDirection,WindDirectionDegrees,WindSpeedMPH,WindSpeedGustMPH,Humidity,HourlyPrecipIn,Conditions,Clouds,dailyrainin,SoftwareType,DateUTC
2013-09-17 00:00:00,49.2,46.4,30.26,East,93,0.0,0.0,90,0.00,,---,0.00,VWS V14.00,2013-09-17 05:00:00,
2013-09-17 00:05:00,49.1,46.3,30.26,East,93,0.0,0.0,90,0.00,,---,0.00,VWS V14.00,2013-09-17 05:05:00,
2013-09-17 00:11:00,48.9,46.1,30.26,East,93,0.0,0.0,90,0.00,,---,0.00,VWS V14.00,2013-09-17 05:11:00,
2013-09-17 00:16:00,48.8,46.3,30.26,East,93,0.0,0.0,91,0.00,,---,0.00,VWS V14.00,2013-09-17 05:16:00,
2013-09-17 00:21:00,48.6,46.1,30.26,East,93,0.0,0.0,91,0.00,,---,0.00,VWS V14.00,2013-09-17 05:21:00,
2013-09-17 00:26:00,48.6,46.1,30.26,East,93,0.0,0.0,91,0.00,,---,0.00,VWS V14.00,2013-09-17 05:26:00,
2013-09-17 00:31:00,48.6,46.1,30.26,East,93,0.0,0.0,91,0.00,,---,0.00,VWS V14.00,2013-09-17 05:31:00,
2013-09-17 00:36:00,48.6,46.4,30.25,East,93,0.0,0.0,92,0.00,,---,0.00,VWS V14.00,2013-09-17 05:36:00,
2013-09-17 00:41:00,48.6,46.4,30.25,East,93,0.0,0.0,92,0.00,,---,0.00,VWS V14.00,2013-09-17 05:41:00,
2013-09-17 00:46:00,48.6,46.4,30.25,East,93,0.0,0.0,92,0.00,,---,0.00,VWS V14.00,2013-09-17 05:46:00,
2013-09-17 00:51:00,48.5,46.3,30.25,East,93,0.0,0.0,92,0.00,,---,0.00,VWS V14.00,2013-09-17 05:51:00,
2013-09-17 00:56:00,48.5,46.3,30.25,East,93,0.0,0.0,92,0.00,,---,0.00,VWS V14.00,2013-09-17 05:56:00,
2013-09-17 01:01:00,48.5,46.6,30.25,East,93,0.0,0.0,93,0.00,,---,0.00,VWS V14.00,2013-09-17 06:01:00,
2013-09-17 01:06:00,48.5,46.6,30.25,East,93,0.0,0.0,93,0.00,,---,0.00,VWS V14.00,2013-09-17 06:06:00,
2013-09-17 01:12:00,48.5,46.6,30.25,East,93,0.0,0.0,93,0.00,,---,0.00,VWS V14.00,2013-09-17 06:12:00,
2013-09-17 01:17:00,48.5,46.6,30.25,East,93,0.0,0.0,93,0.00,,---,0.00,VWS V14.00,2013-09-17 06:17:00,
2013-09-17 01:22:00,48.5,46.9,30.25,East,93,0.0,0.0,94,0.00,,---,0.00,VWS V14.00,2013-09-17 06:22:00,
2013-09-17 01:27:00,48.5,46.9,30.25,East,93,0.0,0.0,94,0.00,,---,0.00,VWS V14.00,2013-09-17 06:27:00,
2013-09-17 01:32:00,48.3,46.7,30.25,East,93,0.0,0.0,94,0.00,,---,0.00,VWS V14.00,2013-09-17 06:32:00,
2013-09-17 01:37:00,48.3,46.7,30.25,East,93,0.0,0.0,94,0.00,,---,0.00,VWS V14.00,2013-09-17 06:37:00,
2013-09-17 01:42:00,48.2,46.6,30.25,East,93,0.0,0.0,94,0.00,,---,0.00,VWS V14.00,2013-09-17 06:42:00,
2013-09-17 01:47:00,48.2,46.6,30.25,East,93,0.0,0.0,94,0.00,,---,0.00,VWS V14.00,2013-09-17 06:47:00,
2013-09-17 01:52:00,48.2,46.6,30.25,East,93,0.0,0.0,94,0.00,,---,0.00,VWS V14.00,2013-09-17 06:52:00,
2013-09-17 01:57:00,48.2,46.8,30.25,East,93,0.0,0.0,95,0.00,,---,0.00,VWS V14.00,2013-09-17 06:57:00,
2013-09-17 02:02:00,48.2,46.8,30.25,East,93,0.0,0.0,95,0.00,,---,0.00,VWS V14.00,2013-09-17 07:02:00,
2013-09-17 02:07:00,48.0,46.6,30.25,East,93,0.0,0.0,95,0.00,,---,0.00,VWS V14.00,2013-09-17 07:07:00,
2013-09-17 02:13:00,48.0,46.6,30.25,East,93,0.0,0.0,95,0.00,,---,0.00,VWS V14.00,2013-09-17 07:13:00,
2013-09-17 02:18:00,47.9,46.5,30.25,East,93,0.0,0.0,95,0.00,,---,0.00,VWS V14.00,2013-09-17 07:18:00,
2013-09-17 02:23:00,47.9,46.5,30.25,East,93,0.0,0.0,95,0.00,,---,0.00,VWS V14.00,2013-09-17 07:23:00,
2013-09-17 02:28:00,47.7,46.3,30.25,East,93,0.0,0.0,95,0.00,,---,0.00,VWS V14.00,2013-09-17 07:28:00,
2013-09-17 02:33:00,47.7,46.3,30.25,East,93,0.0,0.0,95,0.00,,---,0.00,VWS V14.00,2013-09-17 07:33:00,
2013-09-17 02:38:00,47.6,46.2,30.25,East,93,0.0,0.0,95,0.00,,---,0.00,VWS V14.00,2013-09-17 07:38:00,
2013-09-17 02:43:00,47.6,46.2,30.25,East,93,0.0,0.0,95,0.00,,---,0.00,VWS V14.00,2013-09-17 07:43:00,
2013-09-17 02:48:00,47.4,46.0,30.25,East,93,0.0,0.0,95,0.00,,---,0.00,VWS V14.00,2013-09-17 07:48:00,
2013-09-17 02:54:00,47.3,45.9,30.25,East,93,0.0,0.0,95,0.00,,---,0.00,VWS V14.00,2013-09-17 07:54:00,
2013-09-17 02:59:00,47.3,45.9,30.25,East,93,0.0,0.0,95,0.00,,---,0.00,VWS V14.00,2013-09-17 07:59:00,
2013-09-17 03:04:00,47.1,45.7,30.25,East,93,0.0,0.0,95,0.00,,---,0.00,VWS V14.00,2013-09-17 08:04:00,
2013-09-17 03:09:00,47.1,45.7,30.25,East,93,0.0,0.0,95,0.00,,---,0.00,VWS V14.00,2013-09-17 08:09:00,
2013-09-17 03:14:00,47.0,45.7,30.25,East,93,0.0,0.0,95,0.00,,---,0.00,VWS V14.00,2013-09-17 08:14:00,
2013-09-17 03:19:00,47.0,45.9,30.25,East,93,0.0,0.0,96,0.00,,---,0.00,VWS V14.00,2013-09-17 08:19:00,
2013-09-17 03:24:00,47.0,45.9,30.25,East,93,0.0,0.0,96,0.00,,---,0.00,VWS V14.00,2013-09-17 08:24:00,
2013-09-17 03:29:00,47.0,45.9,30.25,East,93,0.0,0.0,96,0.00,,---,0.00,VWS V14.00,2013-09-17 08:29:00,
2013-09-17 03:34:00,47.1,46.0,30.25,East,93,0.0,0.0,96,0.00,,---,0.00,VWS V14.00,2013-09-17 08:34:00,
2013-09-17 03:40:00,47.1,46.0,30.24,East,93,0.0,0.0,96,0.00,,---,0.00,VWS V14.00,2013-09-17 08:40:00,
2013-09-17 03:45:00,47.1,46.0,30.24,East,93,0.0,0.0,96,0.00,,---,0.00,VWS V14.00,2013-09-17 08:45:00,
2013-09-17 03:50:00,47.1,46.0,30.24,East,93,0.0,0.0,96,0.00,,---,0.00,VWS V14.00,2013-09-17 08:50:00,
2013-09-17 03:55:00,47.1,46.0,30.24,East,93,0.0,0.0,96,0.00,,---,0.00,VWS V14.00,2013-09-17 08:55:00,
2013-09-17 04:00:00,47.1,46.0,30.24,East,93,0.0,0.0,96,0.00,,---,0.00,VWS V14.00,2013-09-17 09:00:00,
2013-09-17 04:05:00,47.1,46.0,30.24,East,93,0.0,0.0,96,0.00,,---,0.00,VWS V14.00,2013-09-17 09:05:00,
2013-09-17 04:10:00,47.1,46.0,30.24,East,93,0.0,0.0,96,0.00,,---,0.00,VWS V14.00,2013-09-17 09:10:00,
2013-09-17 04:15:00,47.1,46.0,30.24,East,93,0.0,0.0,96,0.00,,---,0.00,VWS V14.00,2013-09-17 09:15:00,
2013-09-17 04:20:00,47.3,46.2,30.23,East,93,0.0,0.0,96,0.00,,---,0.00,VWS V14.00,2013-09-17 09:20:00,
2013-09-17 04:26:00,47.3,46.2,30.23,East,93,0.0,0.0,96,0.00,,---,0.00,VWS V14.00,2013-09-17 09:26:00,
2013-09-17 04:31:00,47.3,46.2,30.23,East,93,0.0,0.0,96,0.00,,---,0.00,VWS V14.00,2013-09-17 09:31:00,
2013-09-17 04:36:00,47.4,46.3,30.23,East,93,0.0,0.0,96,0.00,,---,0.00,VWS V14.00,2013-09-17 09:36:00,
2013-09-17 04:41:00,47.3,46.2,30.23,East,93,0.0,0.0,96,0.00,,---,0.00,VWS V14.00,2013-09-17 09:41:00,
2013-09-17 04:46:00,47.3,46.5,30.23,East,93,0.0,0.0,97,0.00,,---,0.00,VWS V14.00,2013-09-17 09:46:00,
2013-09-17 04:51:00,47.3,46.5,30.23,East,93,0.0,0.0,97,0.00,,---,0.00,VWS V14.00,2013-09-17 09:51:00,
2013-09-17 04:56:00,47.1,46.3,30.23,East,93,0.0,0.0,97,0.00,,---,0.00,VWS V14.00,2013-09-17 09:56:00,
2013-09-17 05:01:00,47.1,46.3,30.23,East,93,0.0,0.0,97,0.00,,---,0.00,VWS V14.00,2013-09-17 10:01:00,
2013-09-17 05:06:00,47.3,46.5,30.23,East,93,0.0,0.0,97,0.00,,---,0.00,VWS V14.00,2013-09-17 10:06:00,
2013-09-17 05:11:00,47.6,46.8,30.23,East,93,0.0,0.0,97,0.00,,---,0.00,VWS V14.00,2013-09-17 10:11:00,
2013-09-17 05:16:00,47.9,47.1,30.23,East,93,0.0,0.0,97,0.00,,---,0.00,VWS V14.00,2013-09-17 10:16:00,
2013-09-17 05:21:00,48.2,47.4,30.23,East,93,0.0,0.0,97,0.00,,---,0.00,VWS V14.00,2013-09-17 10:21:00,
2013-09-17 05:26:00,48.3,47.5,30.23,East,93,0.0,0.0,97,0.00,,---,0.00,VWS V14.00,2013-09-17 10:26:00,
2013-09-17 05:31:00,48.5,47.7,30.23,East,93,0.0,0.0,97,0.00,,---,0.00,VWS V14.00,2013-09-17 10:31:00,
2013-09-17 05:36:00,48.8,48.3,30.23,East,93,0.0,0.0,98,0.00,,---,0.00,VWS V14.00,2013-09-17 10:36:00,
2013-09-17 05:41:00,48.9,48.4,30.23,East,93,0.0,0.0,98,0.00,,---,0.00,VWS V14.00,2013-09-17 10:41:00,
2013-09-17 05:46:00,49.1,48.6,30.23,East,93,0.0,0.0,98,0.00,,---,0.00,VWS V14.00,2013-09-17 10:46:00,
2013-09-17 05:51:00,49.1,48.6,30.22,East,93,0.0,0.0,98,0.00,,---,0.00,VWS V14.00,2013-09-17 10:51:00,
2013-09-17 05:56:00,49.1,48.3,30.22,East,93,0.0,0.0,97,0.00,,---,0.00,VWS V14.00,2013-09-17 10:56:00,
2013-09-17 06:02:00,49.1,48.6,30.22,East,93,0.0,0.0,98,0.00,,---,0.00,VWS V14.00,2013-09-17 11:02:00,
2013-09-17 06:07:00,48.9,48.4,30.22,East,93,0.0,0.0,98,0.00,,---,0.00,VWS V14.00,2013-09-17 11:07:00,
2013-09-17 06:12:00,48.9,48.4,30.22,East,93,0.0,0.0,98,0.00,,---,0.00,VWS V14.00,2013-09-17 11:12:00,
2013-09-17 06:17:00,48.9,48.4,30.22,East,93,0.0,0.0,98,0.00,,---,0.00,VWS V14.00,2013-09-17 11:17:00,
2013-09-17 06:22:00,48.8,48.3,30.23,East,93,0.0,0.0,98,0.00,,---,0.00,VWS V14.00,2013-09-17 11:22:00,
2013-09-17 06:27:00,48.8,48.3,30.23,East,93,0.0,0.0,98,0.00,,---,0.00,VWS V14.00,2013-09-17 11:27:00,
2013-09-17 06:32:00,48.8,48.3,30.23,East,93,0.0,0.0,98,0.00,,---,0.00,VWS V14.00,2013-09-17 11:32:00,
2013-09-17 06:37:00,48.8,48.3,30.23,East,93,0.0,0.0,98,0.00,,---,0.00,VWS V14.00,2013-09-17 11:37:00,
2013-09-17 06:43:00,48.6,48.1,30.23,East,93,0.0,0.0,98,0.00,,---,0.00,VWS V14.00,2013-09-17 11:43:00,
2013-09-17 06:48:00,48.6,48.1,30.23,East,93,0.0,0.0,98,0.00,,---,0.00,VWS V14.00,2013-09-17 11:48:00,
2013-09-17 06:53:00,48.6,48.1,30.23,East,93,0.0,0.0,98,0.00,,---,0.00,VWS V14.00,2013-09-17 11:53:00,
2013-09-17 06:58:00,48.8,48.3,30.23,East,93,0.0,0.0,98,0.00,,---,0.00,VWS V14.00,2013-09-17 11:58:00,
2013-09-17 07:03:00,48.8,48.3,30.23,East,93,0.0,0.0,98,0.00,,---,0.00,VWS V14.00,2013-09-17 12:03:00,
2013-09-17 07:08:00,48.9,48.4,30.24,East,93,0.0,0.0,98,0.00,,---,0.00,VWS V14.00,2013-09-17 12:08:00,
2013-09-17 07:13:00,49.2,48.7,30.24,East,93,0.0,0.0,98,0.00,,---,0.00,VWS V14.00,2013-09-17 12:13:00,
2013-09-17 07:18:00,49.4,48.9,30.24,East,93,0.0,0.0,98,0.00,,---,0.00,VWS V14.00,2013-09-17 12:18:00,
2013-09-17 07:24:00,49.8,49.3,30.24,East,93,0.0,1.0,98,0.00,,---,0.00,VWS V14.00,2013-09-17 12:24:00,
2013-09-17 07:29:00,50.2,49.9,30.24,East,93,2.0,4.0,99,0.00,,---,0.00,VWS V14.00,2013-09-17 12:29:00,
2013-09-17 07:34:00,50.5,50.2,30.24,East,94,0.0,0.0,99,0.00,,---,0.00,VWS V14.00,2013-09-17 12:34:00,
2013-09-17 07:39:00,50.7,50.4,30.24,East,94,0.0,2.0,99,0.00,,---,0.00,VWS V14.00,2013-09-17 12:39:00,
2013-09-17 07:44:00,50.8,50.5,30.24,East,94,0.0,3.0,99,0.00,,---,0.00,VWS V14.00,2013-09-17 12:44:00,
2013-09-17 07:49:00,51.1,50.8,30.24,East,94,0.0,0.0,99,0.00,,---,0.00,VWS V14.00,2013-09-17 12:49:00,
2013-09-17 07:54:00,51.3,51.0,30.24,East,94,0.0,0.0,99,0.00,,---,0.00,VWS V14.00,2013-09-17 12:54:00,
2013-09-17 07:59:00,51.4,51.1,30.24,East,94,0.0,0.0,99,0.00,,---,0.00,VWS V14.00,2013-09-17 12:59:00,
2013-09-17 08:05:00,51.6,51.1,30.24,East,94,0.0,2.0,98,0.00,,---,0.00,VWS V14.00,2013-09-17 13:05:00,
2013-09-17 08:10:00,51.9,51.4,30.24,East,94,0.0,4.0,98,0.00,,---,0.00,VWS V14.00,2013-09-17 13:10:00,
2013-09-17 08:15:00,52.2,51.9,30.24,East,94,0.0,3.0,99,0.00,,---,0.00,VWS V14.00,2013-09-17 13:15:00,
2013-09-17 08:20:00,52.2,51.7,30.24,East,94,4.0,7.0,98,0.00,,---,0.00,VWS V14.00,2013-09-17 13:20:00,
2013-09-17 08:25:00,52.3,51.8,30.24,East,96,0.0,0.0,98,0.00,,---,0.00,VWS V14.00,2013-09-17 13:25:00,
2013-09-17 08:30:00,52.5,52.0,30.24,East,98,6.0,6.0,98,0.00,,---,0.00,VWS V14.00,2013-09-17 13:30:00,
2013-09-17 08:35:00,52.9,52.3,30.24,ESE,103,4.0,4.0,98,0.00,,---,0.00,VWS V14.00,2013-09-17 13:35:00,
2013-09-17 08:40:00,53.1,52.5,30.24,ESE,107,0.0,10.0,98,0.00,,---,0.00,VWS V14.00,2013-09-17 13:40:00,
2013-09-17 08:45:00,53.3,52.5,30.24,ESE,107,0.0,5.0,97,0.00,,---,0.00,VWS V14.00,2013-09-17 13:45:00,
2013-09-17 08:51:00,53.6,52.8,30.24,ESE,107,5.0,8.0,97,0.00,,---,0.00,VWS V14.00,2013-09-17 13:51:00,
2013-09-17 08:56:00,54.2,53.4,30.24,ESE,106,5.0,8.0,97,0.00,,---,0.00,VWS V14.00,2013-09-17 13:56:00,
2013-09-17 09:01:00,55.0,54.2,30.24,ESE,110,5.0,7.0,97,0.00,,---,0.00,VWS V14.00,2013-09-17 14:01:00,
2013-09-17 09:06:00,55.3,53.9,30.24,ESE,108,3.0,9.0,95,0.00,,---,0.00,VWS V14.00,2013-09-17 14:06:00,
2013-09-17 09:11:00,55.6,54.2,30.24,ESE,108,8.0,8.0,95,0.00,,---,0.00,VWS V14.00,2013-09-17 14:11:00,
2013-09-17 09:16:00,55.9,54.2,30.24,ESE,102,11.0,11.0,94,0.00,,---,0.00,VWS V14.00,2013-09-17 14:16:00,
2013-09-17 09:21:00,56.6,54.6,30.24,ESE,114,10.0,11.0,93,0.00,,---,0.00,VWS V14.00,2013-09-17 14:21:00,
2013-09-17 09:26:00,56.7,54.4,30.24,ESE,109,6.0,6.0,92,0.00,,---,0.00,VWS V14.00,2013-09-17 14:26:00,
2013-09-17 09:31:00,58.0,54.8,30.24,ESE,106,4.0,11.0,89,0.00,,---,0.00,VWS V14.00,2013-09-17 14:31:00,
2013-09-17 09:36:00,58.1,54.6,30.24,ESE,111,8.0,11.0,88,0.00,,---,0.00,VWS V14.00,2013-09-17 14:36:00,
2013-09-17 09:41:00,58.6,54.8,30.24,ESE,109,7.0,10.0,87,0.00,,---,0.00,VWS V14.00,2013-09-17 14:41:00,
2013-09-17 09:46:00,58.6,54.1,30.24,ESE,115,9.0,12.0,85,0.00,,---,0.00,VWS V14.00,2013-09-17 14:46:00,
2013-09-17 09:51:00,58.7,54.2,30.24,ESE,117,9.0,11.0,85,0.00,,---,0.00,VWS V14.00,2013-09-17 14:51:00,
2013-09-17 09:56:00,59.0,54.5,30.24,ESE,116,4.0,7.0,85,0.00,,---,0.00,VWS V14.00,2013-09-17 14:56:00,
2013-09-17 10:02:00,59.3,54.8,30.24,ESE,116,9.0,10.0,85,0.00,,---,0.00,VWS V14.00,2013-09-17 15:02:00,
2013-09-17 10:07:00,59.6,54.4,30.24,ESE,112,7.0,10.0,83,0.00,,---,0.00,VWS V14.00,2013-09-17 15:07:00,
2013-09-17 10:12:00,60.2,54.7,30.24,ESE,112,4.0,9.0,82,0.00,,---,0.00,VWS V14.00,2013-09-17 15:12:00,
2013-09-17 10:17:00,60.5,54.7,30.24,ESE,107,4.0,12.0,81,0.00,,---,0.00,VWS V14.00,2013-09-17 15:17:00,
2013-09-17 10:22:00,61.0,55.1,30.23,ESE,110,6.0,11.0,81,0.00,,---,0.00,VWS V14.00,2013-09-17 15:22:00,
2013-09-17 10:27:00,61.2,55.0,30.23,ESE,114,7.0,9.0,80,0.00,,---,0.00,VWS V14.00,2013-09-17 15:27:00,
2013-09-17 10:32:00,61.5,54.9,30.23,ESE,108,6.0,9.0,79,0.00,,---,0.00,VWS V14.00,2013-09-17 15:32:00,
2013-09-17 10:37:00,62.3,55.7,30.23,ESE,111,6.0,10.0,79,0.00,,---,0.00,VWS V14.00,2013-09-17 15:37:00,
2013-09-17 10:43:00,62.9,55.6,30.23,ESE,121,6.0,11.0,77,0.00,,---,0.00,VWS V14.00,2013-09-17 15:43:00,
2013-09-17 10:48:00,63.4,55.7,30.23,ESE,111,8.0,10.0,76,0.00,,---,0.00,VWS V14.00,2013-09-17 15:48:00,
2013-09-17 10:53:00,63.2,55.5,30.23,ESE,117,6.0,7.0,76,0.00,,---,0.00,VWS V14.00,2013-09-17 15:53:00,
2013-09-17 10:58:00,63.2,55.5,30.23,ESE,115,7.0,12.0,76,0.00,,---,0.00,VWS V14.00,2013-09-17 15:58:00,
2013-09-17 11:03:00,64.3,57.0,30.23,ESE,114,6.0,7.0,77,0.00,,---,0.00,VWS V14.00,2013-09-17 16:03:00,
2013-09-17 11:08:00,65.0,56.2,30.22,ESE,107,6.0,7.0,73,0.00,,---,0.00,VWS V14.00,2013-09-17 16:08:00,
2013-09-17 11:13:00,64.7,55.5,30.22,ESE,111,7.0,7.0,72,0.00,,---,0.00,VWS V14.00,2013-09-17 16:13:00,
2013-09-17 11:18:00,65.3,56.4,30.22,ESE,113,5.0,10.0,73,0.00,,---,0.00,VWS V14.00,2013-09-17 16:18:00,
2013-09-17 11:24:00,66.3,56.2,30.22,ESE,110,6.0,10.0,70,0.00,,---,0.00,VWS V14.00,2013-09-17 16:24:00,
2013-09-17 11:29:00,66.8,56.3,30.22,ESE,119,3.0,11.0,69,0.00,,---,0.00,VWS V14.00,2013-09-17 16:29:00,
2013-09-17 11:34:00,66.4,55.5,30.22,ESE,115,4.0,9.0,68,0.00,,---,0.00,VWS V14.00,2013-09-17 16:34:00,
2013-09-17 11:39:00,67.6,56.3,30.21,ESE,103,6.0,9.0,67,0.00,,---,0.00,VWS V14.00,2013-09-17 16:39:00,
2013-09-17 11:44:00,68.6,56.8,30.21,ESE,121,3.0,8.0,66,0.00,,---,0.00,VWS V14.00,2013-09-17 16:44:00,
2013-09-17 11:49:00,69.1,56.4,30.21,SE,130,3.0,10.0,64,0.00,,---,0.00,VWS V14.00,2013-09-17 16:49:00,
2013-09-17 11:54:00,69.6,56.0,30.20,SE,131,11.0,11.0,62,0.00,,---,0.00,VWS V14.00,2013-09-17 16:54:00,
2013-09-17 11:59:00,69.9,56.3,30.20,ESE,113,6.0,10.0,62,0.00,,---,0.00,VWS V14.00,2013-09-17 16:59:00,
2013-09-17 12:05:00,70.9,56.3,30.20,ESE,122,11.0,11.0,60,0.00,,---,0.00,VWS V14.00,2013-09-17 17:05:00,
2013-09-17 12:10:00,70.9,55.9,30.20,ESE,107,9.0,12.0,59,0.00,,---,0.00,VWS V14.00,2013-09-17 17:10:00,
2013-09-17 12:15:00,71.3,55.8,30.20,South,188,2.0,10.0,58,0.00,,---,0.00,VWS V14.00,2013-09-17 17:15:00,
2013-09-17 12:20:00,71.1,56.1,30.20,SE,142,8.0,12.0,59,0.00,,---,0.00,VWS V14.00,2013-09-17 17:20:00,
2013-09-17 12:25:00,70.6,55.6,30.19,ESE,108,5.0,7.0,59,0.00,,---,0.00,VWS V14.00,2013-09-17 17:25:00,
2013-09-17 12:30:00,70.4,55.4,30.19,ESE,112,5.0,10.0,59,0.00,,---,0.00,VWS V14.00,2013-09-17 17:30:00,
2013-09-17 12:35:00,70.6,56.1,30.18,ESE,119,9.0,11.0,60,0.00,,---,0.00,VWS V14.00,2013-09-17 17:35:00,
2013-09-17 12:40:00,70.3,55.3,30.18,SE,133,11.0,12.0,59,0.00,,---,0.00,VWS V14.00,2013-09-17 17:40:00,
2013-09-17 12:46:00,70.4,55.4,30.18,ESE,107,6.0,9.0,59,0.00,,---,0.00,VWS V14.00,2013-09-17 17:46:00,
2013-09-17 12:51:00,70.4,55.9,30.18,ESE,117,1.0,8.0,60,0.00,,---,0.00,VWS V14.00,2013-09-17 17:51:00,
2013-09-17 12:56:00,70.9,55.9,30.18,ESE,110,10.0,10.0,59,0.00,,---,0.00,VWS V14.00,2013-09-17 17:56:00,
2013-09-17 13:01:00,71.5,56.0,30.18,ESE,117,5.0,14.0,58,0.00,,---,0.00,VWS V14.00,2013-09-17 18:01:00,
2013-09-17 13:06:00,71.8,54.8,30.18,ESE,107,5.0,11.0,55,0.00,,---,0.00,VWS V14.00,2013-09-17 18:06:00,
2013-09-17 13:11:00,72.8,56.2,30.18,ESE,113,4.0,7.0,56,0.00,,---,0.00,VWS V14.00,2013-09-17 18:11:00,
2013-09-17 13:16:00,72.7,54.6,30.18,SE,134,6.0,10.0,53,0.00,,---,0.00,VWS V14.00,2013-09-17 18:16:00,
2013-09-17 13:21:00,72.5,55.9,30.17,SSE,155,9.0,9.0,56,0.00,,---,0.00,VWS V14.00,2013-09-17 18:21:00,
2013-09-17 13:26:00,73.2,55.1,30.17,SE,130,5.0,13.0,53,0.00,,---,0.00,VWS V14.00,2013-09-17 18:26:00,
2013-09-17 13:31:00,73.2,54.5,30.17,SE,130,0.0,7.0,52,0.00,,---,0.00,VWS V14.00,2013-09-17 18:31:00,
2013-09-17 13:36:00,74.2,54.4,30.16,SE,130,5.0,10.0,50,0.00,,---,0.00,VWS V14.00,2013-09-17 18:36:00,
2013-09-17 13:42:00,75.3,55.4,30.16,SE,144,11.0,12.0,50,0.00,,---,0.00,VWS V14.00,2013-09-17 18:42:00,
2013-09-17 13:47:00,75.6,54.0,30.16,SE,144,3.0,7.0,47,0.00,,---,0.00,VWS V14.00,2013-09-17 18:47:00,
2013-09-17 13:52:00,75.1,54.7,30.15,SSE,165,10.0,14.0,49,0.00,,---,0.00,VWS V14.00,2013-09-17 18:52:00,
2013-09-17 13:57:00,75.3,54.3,30.15,SSE,158,4.0,7.0,48,0.00,,---,0.00,VWS V14.00,2013-09-17 18:57:00,
2013-09-17 14:02:00,74.7,53.7,30.15,SE,142,6.0,6.0,48,0.00,,---,0.00,VWS V14.00,2013-09-17 19:02:00,
2013-09-17 14:07:00,74.4,54.6,30.15,SE,134,11.0,11.0,50,0.00,,---,0.00,VWS V14.00,2013-09-17 19:07:00,
2013-09-17 14:12:00,74.6,54.2,30.15,ESE,119,9.0,10.0,49,0.00,,---,0.00,VWS V14.00,2013-09-17 19:12:00,
2013-09-17 14:17:00,73.3,53.6,30.15,ESE,119,4.0,9.0,50,0.00,,---,0.00,VWS V14.00,2013-09-17 19:17:00,
2013-09-17 14:23:00,73.7,53.9,30.14,SE,130,5.0,7.0,50,0.00,,---,0.00,VWS V14.00,2013-09-17 19:23:00,
2013-09-17 14:28:00,73.9,54.1,30.14,SE,140,4.0,10.0,50,0.00,,---,0.00,VWS V14.00,2013-09-17 19:28:00,
2013-09-17 14:33:00,74.4,55.1,30.14,ESE,111,13.0,13.0,51,0.00,,---,0.00,VWS V14.00,2013-09-17 19:33:00,
2013-09-17 14:38:00,73.9,53.6,30.13,SE,124,11.0,11.0,49,0.00,,---,0.00,VWS V14.00,2013-09-17 19:38:00,
2013-09-17 14:43:00,73.2,53.5,30.13,SE,140,9.0,11.0,50,0.00,,---,0.00,VWS V14.00,2013-09-17 19:43:00,
2013-09-17 14:48:00,72.7,53.5,30.13,ESE,119,3.0,9.0,51,0.00,,---,0.00,VWS V14.00,2013-09-17 19:48:00,
2013-09-17 14:53:00,73.0,53.3,30.13,ESE,119,4.0,6.0,50,0.00,,---,0.00,VWS V14.00,2013-09-17 19:53:00,
2013-09-17 14:58:00,73.5,53.2,30.13,ESE,110,3.0,11.0,49,0.00,,---,0.00,VWS V14.00,2013-09-17 19:58:00,
2013-09-17 15:03:00,73.7,55.0,30.13,ESE,110,0.0,2.0,52,0.00,,---,0.00,VWS V14.00,2013-09-17 20:03:00,
2013-09-17 15:09:00,74.4,53.5,30.12,ESE,111,10.0,12.0,48,0.00,,---,0.00,VWS V14.00,2013-09-17 20:09:00,
2013-09-17 15:14:00,73.7,53.4,30.12,ESE,111,7.0,11.0,49,0.00,,---,0.00,VWS V14.00,2013-09-17 20:14:00,
2013-09-17 15:19:00,74.2,53.8,30.12,SSE,150,7.0,10.0,49,0.00,,---,0.00,VWS V14.00,2013-09-17 20:19:00,
2013-09-17 15:24:00,73.9,52.4,30.12,SE,127,5.0,10.0,47,0.00,,---,0.00,VWS V14.00,2013-09-17 20:24:00,
2013-09-17 15:29:00,73.7,52.8,30.12,SE,134,0.0,4.0,48,0.00,,---,0.00,VWS V14.00,2013-09-17 20:29:00,
2013-09-17 15:34:00,73.7,52.8,30.12,SE,130,5.0,6.0,48,0.00,,---,0.00,VWS V14.00,2013-09-17 20:34:00,
2013-09-17 15:39:00,73.3,53.6,30.12,ESE,106,7.0,7.0,50,0.00,,---,0.00,VWS V14.00,2013-09-17 20:39:00,
2013-09-17 15:44:00,73.2,52.9,30.12,ESE,109,4.0,5.0,49,0.00,,---,0.00,VWS V14.00,2013-09-17 20:44:00,
2013-09-17 15:50:00,72.8,52.5,30.12,ESE,114,7.0,11.0,49,0.00,,---,0.00,VWS V14.00,2013-09-17 20:50:00,
2013-09-17 15:55:00,72.3,53.2,30.11,ESE,120,6.0,9.0,51,0.00,,---,0.00,VWS V14.00,2013-09-17 20:55:00,
2013-09-17 16:00:00,72.1,53.5,30.11,ESE,119,4.0,6.0,52,0.00,,---,0.00,VWS V14.00,2013-09-17 21:00:00,
2013-09-17 16:05:00,72.3,53.2,30.11,SE,126,6.0,8.0,51,0.00,,---,0.00,VWS V14.00,2013-09-17 21:05:00,
2013-09-17 16:10:00,72.3,53.2,30.11,ESE,113,6.0,6.0,51,0.00,,---,0.00,VWS V14.00,2013-09-17 21:10:00,
2013-09-17 16:15:00,72.1,53.5,30.11,ESE,112,3.0,6.0,52,0.00,,---,0.00,VWS V14.00,2013-09-17 21:15:00,
2013-09-17 16:20:00,72.3,53.7,30.10,ESE,111,5.0,7.0,52,0.00,,---,0.00,VWS V14.00,2013-09-17 21:20:00,
2013-09-17 16:26:00,72.3,53.2,30.10,ESE,111,6.0,7.0,51,0.00,,---,0.00,VWS V14.00,2013-09-17 21:26:00,
2013-09-17 16:30:00,72.1,53.5,30.10,ESE,117,3.0,5.0,52,0.00,,---,0.00,VWS V14.00,2013-09-17 21:30:00,
2013-09-17 16:36:00,72.0,54.0,30.10,ESE,117,6.0,9.0,53,0.00,,---,0.00,VWS V14.00,2013-09-17 21:36:00,
2013-09-17 16:41:00,71.8,53.2,30.10,ESE,117,2.0,4.0,52,0.00,,---,0.00,VWS V14.00,2013-09-17 21:41:00,
2013-09-17 16:46:00,71.8,54.3,30.10,ESE,117,2.0,2.0,54,0.00,,---,0.00,VWS V14.00,2013-09-17 21:46:00,
2013-09-17 16:51:00,71.8,53.8,30.10,ESE,121,5.0,7.0,53,0.00,,---,0.00,VWS V14.00,2013-09-17 21:51:00,
2013-09-17 16:56:00,71.6,53.6,30.10,ESE,121,2.0,4.0,53,0.00,,---,0.00,VWS V14.00,2013-09-17 21:56:00,
2013-09-17 17:01:00,71.6,53.1,30.10,ESE,118,2.0,5.0,52,0.00,,---,0.00,VWS V14.00,2013-09-17 22:01:00,
2013-09-17 17:06:00,71.5,54.0,30.10,ESE,118,3.0,5.0,54,0.00,,---,0.00,VWS V14.00,2013-09-17 22:06:00,
2013-09-17 17:11:00,71.1,53.1,30.10,ESE,116,6.0,8.0,53,0.00,,---,0.00,VWS V14.00,2013-09-17 22:11:00,
2013-09-17 17:16:00,71.1,53.1,30.10,ESE,115,5.0,7.0,53,0.00,,---,0.00,VWS V14.00,2013-09-17 22:16:00,
2013-09-17 17:21:00,70.9,53.4,30.10,ESE,116,1.0,4.0,54,0.00,,---,0.00,VWS V14.00,2013-09-17 22:21:00,
2013-09-17 17:26:00,70.6,54.2,30.10,ESE,116,3.0,3.0,56,0.00,,---,0.00,VWS V14.00,2013-09-17 22:26:00,
2013-09-17 17:31:00,70.4,53.0,30.10,ESE,117,4.0,4.0,54,0.00,,---,0.00,VWS V14.00,2013-09-17 22:31:00,
2013-09-17 17:36:00,70.1,53.2,30.10,ESE,117,2.0,4.0,55,0.00,,---,0.00,VWS V14.00,2013-09-17 22:36:00,
2013-09-17 17:41:00,69.9,53.5,30.10,ESE,117,1.0,3.0,56,0.00,,---,0.00,VWS V14.00,2013-09-17 22:41:00,
2013-09-17 17:46:00,69.6,53.7,30.10,ESE,117,3.0,4.0,57,0.00,,---,0.00,VWS V14.00,2013-09-17 22:46:00,
2013-09-17 17:51:00,69.3,53.4,30.09,ESE,117,2.0,3.0,57,0.00,,---,0.00,VWS V14.00,2013-09-17 22:51:00,
2013-09-17 17:57:00,68.9,53.5,30.09,ESE,117,2.0,4.0,58,0.00,,---,0.00,VWS V14.00,2013-09-17 22:57:00,
2013-09-17 18:02:00,68.8,53.4,30.09,ESE,117,0.0,2.0,58,0.00,,---,0.00,VWS V14.00,2013-09-17 23:02:00,
2013-09-17 18:07:00,68.6,53.7,30.09,ESE,117,0.0,0.0,59,0.00,,---,0.00,VWS V14.00,2013-09-17 23:07:00,
2013-09-17 18:12:00,68.4,54.0,30.09,ESE,117,0.0,0.0,60,0.00,,---,0.00,VWS V14.00,2013-09-17 23:12:00,
2013-09-17 18:17:00,68.4,54.0,30.09,ESE,117,0.0,0.0,60,0.00,,---,0.00,VWS V14.00,2013-09-17 23:17:00,
2013-09-17 18:22:00,68.3,54.8,30.09,ESE,117,0.0,2.0,62,0.00,,---,0.00,VWS V14.00,2013-09-17 23:22:00,
2013-09-17 18:27:00,67.9,54.8,30.09,ESE,117,0.0,0.0,63,0.00,,---,0.00,VWS V14.00,2013-09-17 23:27:00,
2013-09-17 18:32:00,67.6,55.0,30.09,ESE,117,0.0,0.0,64,0.00,,---,0.00,VWS V14.00,2013-09-17 23:32:00,
2013-09-17 18:37:00,67.4,54.8,30.09,ESE,117,2.0,2.0,64,0.00,,---,0.00,VWS V14.00,2013-09-17 23:37:00,
2013-09-17 18:42:00,67.1,54.5,30.09,ESE,117,2.0,3.0,64,0.00,,---,0.00,VWS V14.00,2013-09-17 23:42:00,
2013-09-17 18:47:00,67.1,54.5,30.09,ESE,117,2.0,2.0,64,0.00,,---,0.00,VWS V14.00,2013-09-17 23:47:00,
2013-09-17 18:52:00,67.1,54.5,30.09,ESE,117,2.0,2.0,64,0.00,,---,0.00,VWS V14.00,2013-09-17 23:52:00,
2013-09-17 18:58:00,66.9,54.8,30.09,ESE,117,1.0,3.0,65,0.00,,---,0.00,VWS V14.00,2013-09-17 23:58:00,
2013-09-17 19:03:00,66.8,54.7,30.09,ESE,117,1.0,3.0,65,0.00,,---,0.00,VWS V14.00,2013-09-18 00:03:00,
2013-09-17 19:08:00,66.4,54.7,30.08,ESE,117,0.0,2.0,66,0.00,,---,0.00,VWS V14.00,2013-09-18 00:08:00,
2013-09-17 19:13:00,66.3,54.6,30.08,ESE,117,2.0,2.0,66,0.00,,---,0.00,VWS V14.00,2013-09-18 00:13:00,
2013-09-17 19:18:00,66.1,54.4,30.08,ESE,117,3.0,3.0,66,0.00,,---,0.00,VWS V14.00,2013-09-18 00:18:00,
2013-09-17 19:23:00,66.1,54.4,30.08,ESE,117,2.0,2.0,66,0.00,,---,0.00,VWS V14.00,2013-09-18 00:23:00,
2013-09-17 19:28:00,66.1,54.4,30.08,ESE,117,2.0,3.0,66,0.00,,---,0.00,VWS V14.00,2013-09-18 00:28:00,
2013-09-17 19:33:00,66.0,54.7,30.08,ESE,117,3.0,3.0,67,0.00,,---,0.00,VWS V14.00,2013-09-18 00:33:00,
2013-09-17 19:38:00,65.6,54.4,30.08,ESE,117,2.0,4.0,67,0.00,,---,0.00,VWS V14.00,2013-09-18 00:38:00,
2013-09-17 19:43:00,65.6,54.8,30.08,ESE,117,2.0,3.0,68,0.00,,---,0.00,VWS V14.00,2013-09-18 00:43:00,
2013-09-17 19:48:00,65.5,55.1,30.08,ESE,117,0.0,0.0,69,0.00,,---,0.00,VWS V14.00,2013-09-18 00:48:00,
2013-09-17 19:53:00,65.2,55.2,30.08,ESE,117,0.0,0.0,70,0.00,,---,0.00,VWS V14.00,2013-09-18 00:53:00,
2013-09-17 19:58:00,64.8,55.2,30.08,ESE,117,0.0,0.0,71,0.00,,---,0.00,VWS V14.00,2013-09-18 00:58:00,
2013-09-17 20:03:00,64.5,55.3,30.08,ESE,117,0.0,0.0,72,0.00,,---,0.00,VWS V14.00,2013-09-18 01:03:00,
2013-09-17 20:08:00,64.3,55.1,30.08,ESE,117,0.0,0.0,72,0.00,,---,0.00,VWS V14.00,2013-09-18 01:08:00,
2013-09-17 20:14:00,64.3,54.7,30.08,ESE,117,2.0,4.0,71,0.00,,---,0.00,VWS V14.00,2013-09-18 01:14:00,
2013-09-17 20:19:00,64.3,54.7,30.08,ESE,117,1.0,3.0,71,0.00,,---,0.00,VWS V14.00,2013-09-18 01:19:00,
2013-09-17 20:24:00,64.2,54.6,30.08,ESE,117,0.0,3.0,71,0.00,,---,0.00,VWS V14.00,2013-09-18 01:24:00,
2013-09-17 20:29:00,64.0,54.8,30.08,ESE,117,0.0,0.0,72,0.00,,---,0.00,VWS V14.00,2013-09-18 01:29:00,
2013-09-17 20:34:00,63.9,54.7,30.08,ESE,117,3.0,4.0,72,0.00,,---,0.00,VWS V14.00,2013-09-18 01:34:00,
2013-09-17 20:39:00,63.9,54.3,30.08,ESE,117,3.0,3.0,71,0.00,,---,0.00,VWS V14.00,2013-09-18 01:39:00,
2013-09-17 20:44:00,63.9,54.3,30.08,ESE,117,1.0,3.0,71,0.00,,---,0.00,VWS V14.00,2013-09-18 01:44:00,
2013-09-17 20:49:00,63.9,54.3,30.08,ESE,117,5.0,5.0,71,0.00,,---,0.00,VWS V14.00,2013-09-18 01:49:00,
2013-09-17 20:54:00,63.9,54.3,30.08,ESE,116,5.0,5.0,71,0.00,,---,0.00,VWS V14.00,2013-09-18 01:54:00,
2013-09-17 20:59:00,63.9,53.9,30.08,ESE,116,4.0,5.0,70,0.00,,---,0.00,VWS V14.00,2013-09-18 01:59:00,
2013-09-17 21:04:00,64.0,54.0,30.08,ESE,116,2.0,5.0,70,0.00,,---,0.00,VWS V14.00,2013-09-18 02:04:00,
2013-09-17 21:09:00,64.0,53.6,30.08,ESE,116,4.0,5.0,69,0.00,,---,0.00,VWS V14.00,2013-09-18 02:09:00,
2013-09-17 21:14:00,63.9,53.5,30.08,ESE,116,4.0,5.0,69,0.00,,---,0.00,VWS V14.00,2013-09-18 02:14:00,
2013-09-17 21:20:00,63.9,53.5,30.08,ESE,116,3.0,5.0,69,0.00,,---,0.00,VWS V14.00,2013-09-18 02:20:00,
2013-09-17 21:25:00,63.9,53.1,30.07,ESE,116,4.0,5.0,68,0.00,,---,0.00,VWS V14.00,2013-09-18 02:25:00,
2013-09-17 21:30:00,63.9,53.1,30.07,ESE,115,6.0,6.0,68,0.00,,---,0.00,VWS V14.00,2013-09-18 02:30:00,
2013-09-17 21:35:00,63.7,53.0,30.07,ESE,115,3.0,4.0,68,0.00,,---,0.00,VWS V14.00,2013-09-18 02:35:00,
2013-09-17 21:40:00,63.7,53.3,30.07,ESE,115,2.0,4.0,69,0.00,,---,0.00,VWS V14.00,2013-09-18 02:40:00,
2013-09-17 21:45:00,63.7,53.3,30.07,ESE,115,4.0,4.0,69,0.00,,---,0.00,VWS V14.00,2013-09-18 02:45:00,
2013-09-17 21:50:00,63.5,53.5,30.07,ESE,115,4.0,5.0,70,0.00,,---,0.00,VWS V14.00,2013-09-18 02:50:00,
2013-09-17 21:55:00,63.4,53.8,30.07,ESE,115,4.0,5.0,71,0.00,,---,0.00,VWS V14.00,2013-09-18 02:55:00,
2013-09-17 22:00:00,63.1,53.6,30.07,ESE,115,4.0,4.0,71,0.00,,---,0.00,VWS V14.00,2013-09-18 03:00:00,
2013-09-17 22:05:00,62.9,53.8,30.07,ESE,115,3.0,3.0,72,0.00,,---,0.00,VWS V14.00,2013-09-18 03:05:00,
2013-09-17 22:10:00,62.7,53.9,30.07,ESE,115,4.0,4.0,73,0.00,,---,0.00,VWS V14.00,2013-09-18 03:10:00,
2013-09-17 22:15:00,62.4,54.0,30.07,ESE,115,3.0,3.0,74,0.00,,---,0.00,VWS V14.00,2013-09-18 03:15:00,
2013-09-17 22:20:00,62.4,54.4,30.07,ESE,115,2.0,3.0,75,0.00,,---,0.00,VWS V14.00,2013-09-18 03:20:00,
2013-09-17 22:25:00,62.1,54.5,30.07,ESE,115,2.0,3.0,76,0.00,,---,0.00,VWS V14.00,2013-09-18 03:25:00,
2013-09-17 22:30:00,62.1,54.5,30.07,ESE,115,3.0,4.0,76,0.00,,---,0.00,VWS V14.00,2013-09-18 03:30:00,
2013-09-17 22:35:00,62.0,54.7,30.07,ESE,115,2.0,3.0,77,0.00,,---,0.00,VWS V14.00,2013-09-18 03:35:00,
2013-09-17 22:40:00,61.8,54.9,30.07,ESE,115,2.0,3.0,78,0.00,,---,0.00,VWS V14.00,2013-09-18 03:40:00,
2013-09-17 22:45:00,61.8,54.9,30.07,ESE,115,0.0,1.0,78,0.00,,---,0.00,VWS V14.00,2013-09-18 03:45:00,
2013-09-17 22:50:00,61.6,55.0,30.07,ESE,115,0.0,0.0,79,0.00,,---,0.00,VWS V14.00,2013-09-18 03:50:00,
2013-09-17 22:55:00,61.5,55.3,30.07,ESE,115,1.0,2.0,80,0.00,,---,0.00,VWS V14.00,2013-09-18 03:55:00,
2013-09-17 23:01:00,61.5,55.3,30.07,ESE,115,3.0,3.0,80,0.00,,---,0.00,VWS V14.00,2013-09-18 04:01:00,
2013-09-17 23:04:00,61.5,55.3,30.07,ESE,115,4.0,4.0,80,0.00,,---,0.00,VWS V14.00,2013-09-18 04:04:00,
2013-09-17 23:10:00,61.5,55.3,30.07,ESE,115,3.0,4.0,80,0.00,,---,0.00,VWS V14.00,2013-09-18 04:10:00,
2013-09-17 23:15:00,61.3,55.4,30.07,ESE,115,3.0,4.0,81,0.00,,---,0.00,VWS V14.00,2013-09-18 04:15:00,
2013-09-17 23:20:00,61.2,55.3,30.07,ESE,115,3.0,4.0,81,0.00,,---,0.00,VWS V14.00,2013-09-18 04:20:00,
2013-09-17 23:25:00,61.0,55.5,30.06,ESE,115,3.0,4.0,82,0.00,,---,0.00,VWS V14.00,2013-09-18 04:25:00,
2013-09-17 23:30:00,60.9,55.4,30.06,ESE,115,2.0,3.0,82,0.00,,---,0.00,VWS V14.00,2013-09-18 04:30:00,
2013-09-17 23:35:00,60.7,55.2,30.05,ESE,115,3.0,4.0,82,0.00,,---,0.00,VWS V14.00,2013-09-18 04:35:00,
2013-09-17 23:40:00,60.7,55.2,30.05,ESE,115,3.0,3.0,82,0.00,,---,0.00,VWS V14.00,2013-09-18 04:40:00,
2013-09-17 23:45:00,60.7,54.8,30.05,ESE,115,2.0,3.0,81,0.00,,---,0.00,VWS V14.00,2013-09-18 04:45:00,
2013-09-17 23:51:00,60.5,54.7,30.05,ESE,115,3.0,3.0,81,0.00,,---,0.00,VWS V14.00,2013-09-18 04:51:00,
2013-09-17 23:56:00,60.4,54.9,30.05,ESE,115,3.0,3.0,82,0.00,,---,0.00,VWS V14.00,2013-09-18 04:56:00,